TimeMDT,TemperatureF,Dew PointF,Humidity,Sea Level PressureIn,VisibilityMPH,Wind Direction,Wind SpeedMPH,Gust SpeedMPH,PrecipitationIn,Events,Conditions,WindDirDegrees,DateUTC
12:53 AM,52.0,24.1,34,29.73,10.0,WNW,15.0,-,N/A,,Clear,300,2013-05-19 06:53:00
1:53 AM,48.0,24.1,39,29.77,10.0,WNW,12.7,-,N/A,,Clear,290,2013-05-19 07:53:00
2:53 AM,51.1,28.0,41,29.75,10.0,WNW,19.6,27.6,N/A,,Clear,290,2013-05-19 08:53:00
3:53 AM,51.1,30.0,44,29.74,10.0,NW,18.4,25.3,N/A,,Scattered Clouds,310,2013-05-19 09:53:00
4:53 AM,48.9,30.0,48,29.78,10.0,NW,11.5,-,N/A,,Scattered Clouds,310,2013-05-19 10:53:00
5:53 AM,48.9,30.0,48,29.78,10.0,WNW,11.5,-,N/A,,Overcast,290,2013-05-19 11:53:00
6:53 AM,51.1,30.9,46,29.80,10.0,WNW,6.9,-,N/A,,Mostly Cloudy,290,2013-05-19 12:53:00
7:53 AM,54.0,30.9,41,29.79,10.0,West,21.9,27.6,N/A,,Clear,280,2013-05-19 13:53:00
8:53 AM,57.9,30.0,35,29.79,10.0,WNW,23.0,29.9,N/A,,Clear,290,2013-05-19 14:53:00
9:53 AM,61.0,28.0,29,29.78,10.0,West,18.4,34.5,N/A,,Partly Cloudy,280,2013-05-19 15:53:00
10:53 AM,62.1,25.0,24,29.75,10.0,WNW,25.3,35.7,N/A,,Clear,300,2013-05-19 16:53:00
11:53 AM,64.0,26.1,24,29.75,10.0,WNW,31.1,39.1,N/A,,Clear,300,2013-05-19 17:53:00
12:53 PM,66.9,24.1,20,29.73,10.0,WNW,26.5,41.4,N/A,,Clear,290,2013-05-19 18:53:00
1:53 PM,66.0,23.0,20,29.75,10.0,WNW,24.2,40.3,N/A,,Partly Cloudy,290,2013-05-19 19:53:00
2:53 PM,68.0,21.0,17,29.71,10.0,WNW,28.8,35.7,N/A,,Partly Cloudy,290,2013-05-19 20:53:00
3:53 PM,68.0,14.0,12,29.70,10.0,West,25.3,40.3,N/A,,Partly Cloudy,280,2013-05-19 21:53:00
4:53 PM,66.0,18.0,16,29.70,10.0,West,35.7,42.6,N/A,,Mostly Cloudy,270,2013-05-19 22:53:00
5:53 PM,64.0,23.0,21,29.74,10.0,NW,29.9,41.4,N/A,,Clear,310,2013-05-19 23:53:00
6:53 PM,60.1,21.9,23,29.75,10.0,NNW,25.3,36.8,N/A,,Clear,330,2013-05-20 00:53:00
7:53 PM,57.9,19.9,23,29.75,10.0,NW,19.6,26.5,N/A,,Clear,320,2013-05-20 01:53:00
8:53 PM,57.0,18.0,22,29.75,10.0,NW,16.1,-,N/A,,Partly Cloudy,310,2013-05-20 02:53:00
9:53 PM,55.9,23.0,28,29.75,10.0,NNW,17.3,24.2,N/A,,Clear,340,2013-05-20 03:53:00
10:53 PM,54.0,23.0,30,29.77,10.0,NW,11.5,-,N/A,,Partly Cloudy,310,2013-05-20 04:53:00
11:53 PM,51.1,21.9,32,29.76,10.0,NW,13.8,-,N/A,,Clear,310,2013-05-20 05:53:00